CZ-2D DEB, 44606

Orbit data source: Space-Track

CZ-2D DEB, 44606 is space debris in SSO originally from a launch on Fri, 11 Nov 2016 UTC launched from the Jiuquan Satellite Launch Center, China (JSC). Debris objects in space refer to the collection of defunct objects orbiting the Earth. Examples of debris include non-operational satellites, rocket bodies, and fragments generated from explosions, collisions, or faulty payload assembly.

Loading next visibility...
Identifier
44606, 2016-068F
Orbit
SSO
Country
Flag of CNCN / PRC
Related business
Manufacturer
Unknown
Mission
Spacecraft
Bus & Motor
Unknown
Mass
Unknown
Launch date (UTC)
2016-11-11 (9 years ago)
Launch vehicle
Unknown
Launch site
Jiuquan Satellite Launch Center, China (JSC)
Object type
Payload
Rocket body
Debris
Shape & HBR
Unknown shape, 0.1 m
Radar Cross Section
Small (<0.1 m²)

Expand to show TLE details & history
Last TLE update: 14 hours ago

TLE from 14 hours ago
0 CZ-2D DEB
1 44606U 16068F   25352.00328483  .00000380  00000-0  26451-3 0  9998
2 44606  98.4421  79.8658 0223354 349.7087   9.9541 13.92747663461210
Epoch: 2025-12-18T00:04Z
TLE epoch observation values (Epoch: 2025-12-18T00:04:43.809Z)
Latitude
-0.00008°
Longitude
-8.18176°
Altitude
761.455 km
Speed
7.555 km/s
True Right ascension
05h 19m 27s
True Declination
0° 00' 00"
Sunlit
Object was in full shadow at epoch
Visualization orbit readout
Latitude
Unknown
Longitude
Unknown
Altitude
Unknown
Speed
Unknown
Apparent Right ascension
Unknown
Apparent Declination
Unknown
Sunlit
N/A
Visualization observer readout
Local Sidereal Time
13:07:38
Azimuth
Unknown
Elevation
Unknown
Doppler factor
Unknown
Orbital elements
Apogee altitude
1,079.12 km
Perigee altitude
753.276 km
Semi-major axis
7,294.335 km
Eccentricity
0.02234
Inclination
98.4421°
RAAN
79.8658°
Arg. of periapsis
349.7087°
True anomaly
10.40901°
Mean anomaly
9.9541°
Eccentric anomaly
10.18029°
Mean motion
3.48389 °/min
Orbital period
103.33 mins
BSTAR
0.00026451
Loading maneuver chart data...
Computing Atmospheric mass density...
Loading historical data...
Loading historical data...
Loading historical data...
Loading historical data...
Loading historical data...
Loading historical data...
Loading historical data...

Documentation

Showing up to 5 results
|